Wind_Speed
55 56 58 59 60 60 60 61 61 60 59 61 62 63 65 67 69 69 68 68 66 66 66 66 67 67 68 70 71 71 71 72 72 73 73 74 74 74
58 58 59 60 60 60 60 60 60 59 58 60 63 65 65 66 65 64 62 60 58 56 55 55 55 55 56 58 61 63 65 66 67 68 70 71 73 74
58 59 59 59 59 59 59 59 59 61 60 61 63 63 61 59 56 53 51 48 46 44 42 41 41 42 43 45 47 50 53 56 59 62 64 67 69 71
58 58 58 58 58 57 57 58 60 61 62 60 58 55 52 48 44 42 40 38 36 34 33 32 32 33 34 35 37 39 41 44 47 50 54 58 62 66
57 57 57 56 56 57 58 59 60 60 58 54 49 45 42 38 36 34 33 32 31 29 28 27 27 28 28 28 29 30 31 33 35 38 41 44 49 54
56 55 55 55 56 57 58 59 57 54 50 44 39 36 34 34 33 32 31 30 29 28 26 25 25 25 25 24 24 25 26 26 28 30 32 35 39 43
55 55 55 55 57 57 56 54 51 46 40 35 33 32 32 33 34 33 31 30 29 27 25 24 23 22 22 21 21 21 22 23 24 25 26 28 31 35
54 54 55 56 55 53 50 47 42 37 33 30 30 31 32 33 32 32 31 30 28 27 25 24 22 21 20 19 18 17 17 18 19 20 22 24 26 29
53 54 54 52 49 45 42 38 35 31 29 30 31 32 31 30 30 29 29 28 27 25 24 23 22 19 18 16 15 15 15 14 15 16 17 19 22 25
52 51 48 45 40 37 33 31 29 29 29 30 30 29 28 26 26 25 24 24 24 23 22 21 20 18 17 15 14 13 13 13 13 13 14 15 17 21
48 44 40 36 32 28 25 25 25 26 28 27 26 24 23 22 22 22 22 22 22 21 20 19 18 17 16 15 14 14 13 13 12 11 11 12 15 19
41 37 33 28 24 21 20 20 22 23 23 22 21 21 21 21 20 21 21 20 20 19 17 15 13 13 13 14 14 14 14 14 13 12 11 11 12 16
33 29 25 20 16 16 17 18 19 19 17 17 18 19 20 20 20 19 19 19 19 17 15 13 11 9 10 10 11 12 12 11 11 11 11 12 12 13
25 21 17 13 12 14 16 16 16 15 15 16 17 18 19 19 19 19 19 19 18 17 15 13 11 8 7 7 8 8 9 9 8 9 10 11 12 13
16 12 9 8 10 12 13 13 12 13 14 15 17 18 19 19 19 19 19 18 18 16 14 13 11 8 7 6 6 6 6 6 5 5 7 9 12 14
8 5 5 6 9 10 10 10 11 12 13 15 17 18 18 18 18 17 17 17 16 15 14 13 11 9 7 7 6 6 5 4 3 3 3 5 10 14
2 1 2 5 6 7 8 9 11 12 14 16 17 18 18 18 17 17 17 18 17 17 15 15 14 13 11 11 10 9 8 7 7 5 2 1 5 11
3 2 3 4 6 8 10 11 13 14 16 18 19 19 20 20 20 20 21 22 21 21 20 19 18 18 17 16 15 14 13 13 12 10 8 6 5 7
5 4 6 7 10 11 13 14 15 17 19 20 21 22 23 23 23 23 24 25 25 25 24 24 23 23 21 20 20 20 20 19 18 17 15 13 11 10
7 8 9 11 13 14 15 16 17 19 21 23 24 25 26 26 26 25 25 26 26 27 26 26 26 25 23 22 22 23 24 24 23 22 21 19 16 14
9 11 13 14 15 15 16 17 18 20 22 24 25 27 27 28 28 27 27 27 27 27 26 26 26 26 25 25 24 25 26 27 26 26 25 23 21 19
12 14 15 15 16 17 17 18 19 20 22 24 25 27 28 29 29 29 29 28 27 27 26 26 26 25 24 23 24 26 27 27 27 27 27 27 25 24
14 15 15 16 16 17 18 18 19 20 21 23 24 26 27 28 29 29 29 28 27 26 26 25 24 23 22 22 23 24 25 26 26 26 26 27 26 26
Wind_Direction
298 298 299 300 300 299 300 300 300 299 299 298 297 296 296 296 295 294 292 290 288 285 282 279 277 274 272 269 267 265 263 261 258 256 254 252 250 248
298 299 300 300 300 300 300 300 300 300 300 299 299 299 298 297 296 296 295 293 291 289 285 281 278 276 273 270 267 265 262 260 258 256 253 250 248 246
298 299 300 300 301 301 301 301 301 301 302 302 302 301 300 299 299 299 299 298 296 294 290 286 282 278 276 273 270 267 264 261 259 256 253 249 246 243
299 299 300 300 301 301 302 302 303 303 304 304 303 302 302 302 303 303 304 303 301 299 296 293 288 285 282 279 276 271 267 264 261 258 254 251 247 242
299 300 301 302 302 302 303 304 305 305 306 306 304 303 304 306 307 307 307 306 305 303 301 298 294 292 289 286 282 277 272 268 263 259 255 251 247 243
300 301 302 302 303 304 305 305 306 307 307 306 306 306 307 308 308 307 307 306 305 304 302 298 296 296 295 293 288 282 277 271 265 260 255 251 246 242
301 302 303 304 305 305 306 307 307 308 308 307 306 307 307 308 307 306 305 303 302 301 300 298 297 297 298 298 296 290 282 275 268 262 256 251 246 240
302 303 304 305 306 307 307 308 309 309 308 308 308 308 308 307 306 305 303 302 300 298 297 296 296 295 295 297 299 297 290 281 275 267 258 250 244 237
303 304 305 306 307 308 309 309 309 310 309 310 311 311 310 309 308 307 306 305 302 298 294 291 291 291 292 295 298 298 294 289 279 271 260 249 241 232
304 305 306 307 308 309 309 308 309 311 312 314 316 316 315 315 315 315 315 313 310 305 300 292 285 283 284 288 294 298 298 292 285 273 261 248 238 229
304 305 307 307 308 308 307 307 310 313 316 318 320 322 323 325 326 325 324 323 320 315 308 300 288 280 278 281 287 292 295 293 286 275 261 247 235 226
304 305 307 308 308 306 307 310 315 318 321 324 327 329 330 331 332 332 332 333 332 328 325 315 301 287 280 279 284 288 291 290 285 275 262 248 236 224
304 305 307 308 307 308 312 318 322 325 329 332 334 335 336 337 338 339 342 343 342 340 337 333 325 306 292 287 288 290 290 289 281 269 256 245 234 223
303 305 306 307 309 315 322 327 331 335 337 337 337 338 339 340 340 340 341 343 346 346 345 343 339 330 316 305 301 300 298 292 283 269 253 240 227 218
299 300 302 308 317 326 333 338 342 344 344 342 339 338 337 338 340 343 345 349 350 351 353 354 353 347 338 328 321 318 314 307 294 277 254 236 222 213
286 286 300 320 332 341 350 358 359 357 354 352 350 350 350 348 349 351 354 358 0 2 7 12 17 20 20 13 6 1 358 354 344 319 270 231 215 207
229 234 327 345 358 11 22 26 24 18 14 12 13 14 16 18 20 21 20 21 23 26 33 39 42 47 51 48 44 43 44 43 37 33 38 179 197 196
144 96 36 37 47 53 53 48 42 36 33 32 33 34 36 38 40 42 42 43 44 48 52 55 57 58 58 58 58 60 60 57 56 58 66 80 121 162
112 86 76 78 77 74 68 62 55 51 48 46 45 47 48 49 50 51 51 52 53 57 60 62 62 63 62 63 67 68 68 66 66 66 69 76 90 114
98 93 94 93 88 81 74 67 61 57 54 53 54 54 55 54 55 55 56 56 58 60 63 64 66 67 68 69 71 73 72 70 69 69 71 75 83 97
100 103 103 97 91 83 75 68 64 60 59 58 57 57 57 56 56 57 58 59 60 62 65 67 69 70 72 73 74 75 74 73 73 75 75 76 80 87
107 109 105 99 91 82 75 69 66 64 62 61 60 59 58 57 57 57 58 59 61 63 65 67 68 70 73 76 77 76 75 75 75 75 77 79 80 85
111 111 107 99 90 81 75 71 69 67 64 62 60 59 58 58 57 57 57 58 59 61 63 66 68 71 73 74 75 76 76 77 77 79 81 83 84 87
Height
5746 5741 5735 5729 5723 5717 5710 5703 5697 5692 5686 5674 5666 5658 5650 5642 5634 5627 5620 5614 5609 5604 5600 5596 5593 5591 5590 5589 5590 5591 5593 5596 5600 5604 5609 5614 5620 5627
5732 5727 5720 5714 5708 5701 5695 5687 5680 5674 5669 5660 5650 5641 5633 5624 5615 5607 5600 5593 5587 5582 5578 5574 5571 5569 5568 5567 5567 5568 5569 5572 5575 5579 5584 5589 5596 5602
5718 5712 5706 5700 5693 5686 5680 5672 5664 5657 5651 5644 5632 5623 5615 5607 5599 5591 5584 5577 5571 5566 5562 5558 5555 5553 5551 5550 5549 5549 5550 5551 5554 5557 5560 5566 5572 5580
5704 5698 5692 5686 5679 5672 5664 5657 5649 5640 5633 5627 5617 5608 5600 5592 5586 5579 5572 5566 5561 5556 5552 5548 5544 5542 5539 5537 5536 5535 5535 5535 5536 5538 5541 5546 5552 5557
5691 5685 5678 5672 5665 5657 5650 5642 5634 5625 5617 5610 5602 5594 5588 5581 5576 5570 5564 5558 5553 5549 5544 5540 5537 5533 5531 5528 5526 5525 5523 5523 5523 5524 5525 5528 5532 5538
5677 5671 5665 5658 5650 5643 5635 5627 5619 5612 5604 5597 5590 5584 5579 5573 5567 5562 5557 5551 5546 5542 5538 5534 5530 5527 5524 5521 5519 5517 5515 5514 5513 5513 5514 5516 5519 5523
5663 5657 5651 5644 5636 5629 5621 5614 5607 5600 5593 5587 5582 5577 5571 5566 5560 5554 5550 5545 5540 5535 5532 5528 5524 5521 5518 5515 5512 5510 5508 5506 5505 5504 5505 5506 5508 5511
5650 5643 5637 5631 5624 5616 5609 5602 5596 5590 5585 5580 5575 5570 5564 5558 5553 5547 5542 5538 5533 5529 5525 5521 5518 5515 5512 5510 5507 5504 5502 5500 5498 5497 5497 5498 5499 5502
5637 5631 5624 5618 5612 5605 5599 5593 5587 5582 5578 5573 5568 5562 5557 5551 5546 5540 5535 5529 5525 5521 5518 5514 5511 5509 5507 5505 5502 5500 5498 5495 5493 5492 5492 5492 5493 5496
5626 5620 5613 5607 5602 5596 5591 5586 5581 5577 5572 5567 5562 5556 5550 5545 5539 5534 5529 5523 5519 5514 5511 5508 5505 5503 5502 5500 5498 5496 5494 5492 5490 5488 5487 5488 5489 5491
5615 5609 5604 5599 5595 5590 5585 5581 5577 5572 5567 5562 5556 5551 5546 5540 5535 5530 5524 5519 5514 5509 5505 5501 5499 5497 5497 5496 5494 5492 5490 5488 5487 5485 5484 5484 5485 5487
5604 5600 5596 5592 5589 5585 5581 5578 5573 5569 5563 5558 5553 5548 5543 5538 5532 5527 5521 5516 5510 5506 5501 5497 5494 5493 5492 5491 5490 5488 5486 5485 5483 5482 5482 5482 5483 5484
5596 5593 5589 5587 5584 5581 5578 5574 5570 5565 5561 5556 5552 5547 5541 5536 5530 5525 5519 5514 5509 5503 5499 5495 5492 5490 5488 5487 5486 5485 5483 5481 5480 5479 5479 5479 5480 5482
5590 5587 5585 5583 5581 5578 5575 5572 5568 5564 5560 5555 5551 5545 5540 5535 5529 5524 5518 5513 5508 5502 5498 5494 5491 5488 5486 5485 5484 5482 5480 5479 5477 5477 5476 5477 5478 5480
5585 5583 5582 5580 5579 5577 5573 5570 5567 5563 5559 5555 5550 5545 5539 5534 5528 5523 5518 5512 5507 5502 5497 5493 5490 5487 5485 5484 5482 5481 5479 5477 5476 5475 5474 5475 5476 5478
5582 5581 5580 5579 5578 5575 5573 5570 5567 5563 5559 5554 5549 5544 5538 5533 5528 5523 5518 5512 5507 5502 5498 5494 5490 5488 5486 5484 5482 5480 5479 5477 5475 5474 5473 5473 5474 5476
5580 5580 5580 5579 5577 5575 5573 5571 5568 5564 5560 5555 5550 5545 5540 5534 5529 5524 5519 5514 5509 5504 5500 5496 5493 5490 5488 5486 5484 5482 5480 5478 5476 5474 5473 5473 5473 5475
5580 5580 5580 5579 5578 5576 5574 5572 5569 5566 5562 5558 5553 5548 5543 5538 5533 5528 5523 5518 5513 5508 5504 5501 5498 5495 5492 5490 5488 5485 5483 5481 5479 5477 5475 5474 5474 5475
5580 5581 5580 5580 5579 5578 5577 5575 5572 5569 5565 5561 5557 5552 5547 5543 5538 5533 5528 5524 5519 5514 5510 5507 5503 5500 5498 5496 5494 5491 5488 5486 5483 5481 5479 5478 5477 5478
5581 5581 5581 5581 5581 5581 5579 5577 5575 5572 5569 5565 5561 5557 5553 5548 5543 5539 5535 5530 5526 5522 5518 5514 5511 5508 5505 5503 5501 5498 5495 5492 5490 5488 5486 5484 5483 5484
5583 5583 5584 5584 5584 5583 5582 5581 5579 5576 5573 5570 5566 5562 5558 5554 5550 5546 5541 5537 5533 5529 5526 5522 5519 5516 5513 5512 5509 5506 5503 5500 5498 5496 5494 5492 5492 5491
5585 5586 5587 5587 5587 5587 5586 5584 5583 5580 5578 5575 5572 5568 5564 5560 5556 5552 5548 5544 5541 5537 5534 5530 5527 5525 5522 5520 5518 5515 5512 5510 5507 5505 5503 5502 5502 5501
5588 5589 5590 5591 5591 5591 5590 5588 5587 5585 5583 5580 5577 5574 5570 5567 5563 5559 5556 5552 5548 5545 5541 5538 5535 5533 5531 5529 5526 5523 5521 5519 5518 5516 5515 5513 5512 5512